Weather in Salyan

Azerbaijan     39°35′18″N   48°58′27″E
temp.,
°C
wind,
m/s
gust,
m/s
humid.,
%
clouds,
%
prec.,
mm/h
press.,
hPa
HPBL,
m
23 june, wed
wed2301:00+23ene23634 0.0 101120
04:00+22e226746 0.0 101113
07:00+25e22615 0.0 1012139
10:00+33ese35251 0.0 1012820
13:00+37ese77170 0.0 10111088
16:00+36ese78200 0.0 1010808
19:00+31ese68330 0.0 1010399
22:00+25e34580 0.0 101177
24 june, thu
thu2401:00+25e445632 0.0 101060
04:00+24e225479 0.0 101011
07:00+27ne123912 0.0 101194
10:00+34e452678 0.0 1011698
13:00+37ese89185 0.0 1011949
16:00+35ese810191 0.0 1010767
19:00+31ese610290 0.0 1010433
22:00+25ese46580 0.0 1010104
25 june, fri
fri2501:00+24e34650 0.0 101049
04:00+23ene33590 0.0 101027
07:00+27nnw01380 0.0 101156
10:00+34ene22160 0.0 1010705
13:00+40ese79120 0.0 10091537
16:00+38se811140 0.0 1008995
19:00+32se712270 0.0 1007563
22:00+26ese48540 0.0 1007155
26 june, sat
sat2601:00+25e45620 0.0 100772
04:00+24e456989 0.0 100767
07:00+27ese245861 0.0 1008157
10:00+35ese672492 0.0 1008744
13:00+38se711203 0.0 10071120
16:00+38se10141916 0.0 10061187
19:00+33se814330 0.0 1006614
22:00+28se375093 0.0 1007147
27 june, sun
sun2701:00+27e586395 0.0 1007140
04:00+27e486175 0.0 1007172
07:00+28e595671 0.0 1008230
10:00+36se582461 0.0 10091065
13:00+39ese8111597 0.0 10091508
16:00+37ese9111687 0.0 1008994
19:00+33se69230 0.0 1009488
22:00+27ese474884 0.0 1009153